| time (UTC) | temp F | wind direction | speed knots | gust knots | rain 1hr in | rain 24hr in | rain mn in | humidity % | barometer mb |
| 20260505075326 | 57 | 267 | 4.3 | 6.1 | 0.00 | 0.00 | 0.00 | ||
| 20260505073827 | 59 | 271 | 6.1 | 4.3 | 0.00 | 0.00 | 0.00 | ||
| 20260505072328 | 59 | 280 | 5.2 | 3.5 | 0.00 | 0.00 | 0.00 | ||
| 20260505070829 | 59 | 269 | 4.3 | 7.0 | 0.00 | 0.00 | 0.00 | ||
| 20260505065329 | 59 | 267 | 1.7 | 4.3 | 0.00 | 0.00 | 0.00 | ||
| 20260505063830 | 60 | 273 | 3.5 | 5.2 | 0.00 | 0.00 | 0.00 | ||
| 20260505062331 | 60 | 278 | 5.2 | 5.2 | 0.00 | 0.00 | 0.00 | ||
| 20260505060832 | 60 | 239 | 2.6 | 0.9 | 0.00 | 0.00 | 0.00 | ||
| 20260505055332 | 61 | 255 | 4.3 | 3.5 | 0.00 | 0.00 | 0.00 | ||
| 20260505053833 | 61 | 273 | 6.1 | 3.5 | 0.00 | 0.00 | 0.00 | ||
| 20260505052334 | 61 | 245 | 7.0 | 6.1 | 0.00 | 0.00 | 0.00 | ||
| 20260505050837 | 62 | 291 | 7.0 | 7.0 | 0.00 | 0.00 | 0.00 | ||
| 20260505040838 | 64 | 283 | 4.3 | 4.3 | 0.00 | 0.00 | 0.00 | ||
| 20260505035339 | 65 | 342 | 5.2 | 4.3 | 0.00 | 0.00 | 0.00 | ||
| 20260505033839 | 66 | 316 | 3.5 | 5.2 | 0.00 | 0.00 | 0.00 | ||
| 20260505032340 | 67 | 270 | 5.2 | 6.1 | 0.00 | 0.00 | 0.00 | ||
| 20260505030841 | 66 | 256 | 4.3 | 3.5 | 0.00 | 0.00 | 0.00 | ||
| 20260505023842 | 65 | 298 | 0.9 | 0.0 | 0.00 | 0.00 | 0.00 | ||
| 20260505022343 | 66 | 245 | 3.5 | 2.6 | 0.00 | 0.00 | 0.00 | ||
| 20260505020843 | 66 | 314 | 5.2 | 4.3 | 0.00 | 0.00 | 0.00 | ||
| 20260505015344 | 66 | 300 | 3.5 | 3.5 | 0.00 | 0.00 | 0.00 | ||
| 20260505013845 | 66 | 260 | 4.3 | 3.5 | 0.00 | 0.00 | 0.00 | ||
| 20260505012345 | 66 | 309 | 5.2 | 7.0 | 0.00 | 0.00 | 0.00 | ||
| 20260505010846 | 68 | 295 | 5.2 | 6.1 | 0.00 | 0.00 | 0.00 | ||
| 20260505005346 | 68 | 298 | 6.1 | 7.8 | 0.00 | 0.00 | 0.00 | ||
| 20260505003847 | 70 | 330 | 7.8 | 5.2 | 0.00 | 0.00 | 0.00 | ||
| 20260505002347 | 70 | 293 | 7.8 | 8.7 | 0.00 | 0.00 | 0.00 | ||
| 20260505000848 | 72 | 291 | 7.0 | 4.3 | 0.00 | 0.00 | 0.00 | ||
| 20260504235348 | 71 | 287 | 7.8 | 11.3 | 0.00 | 0.00 | 0.00 | ||
| 20260504233849 | 72 | 325 | 6.1 | 3.5 | 0.00 | 0.00 | 0.00 | ||
| 20260504232349 | 74 | 318 | 7.0 | 7.0 | 0.00 | 0.00 | 0.00 | ||
| 20260504230850 | 73 | 274 | 5.2 | 11.3 | 0.00 | 0.00 | 0.00 | ||
| 20260504225350 | 74 | 304 | 8.7 | 6.1 | 0.00 | 0.00 | 0.00 | ||
| 20260504223851 | 76 | 305 | 6.1 | 1.7 | 0.00 | 0.00 | 0.00 | ||
| 20260504222351 | 73 | 314 | 8.7 | 8.7 | 0.00 | 0.00 | 0.00 | ||
| 20260504220851 | 74 | 284 | 7.8 | 7.0 | 0.00 | 0.00 | 0.00 | ||
| 20260504215352 | 75 | 285 | 6.1 | 6.1 | 0.00 | 0.00 | 0.00 | ||
| 20260504213852 | 75 | 280 | 8.7 | 10.4 | 0.00 | 0.00 | 0.00 | ||
| 20260504212353 | 73 | 328 | 7.0 | 4.3 | 0.00 | 0.00 | 0.00 | ||
| 20260504210853 | 73 | 290 | 7.8 | 8.7 | 0.00 | 0.00 | 0.00 | ||
| 20260504205354 | 72 | 287 | 5.2 | 4.3 | 0.00 | 0.00 | 0.00 | ||
| 20260504202357 | 73 | 280 | 6.1 | 8.7 | 0.00 | 0.00 | 0.00 | ||
| 20260504200856 | 73 | 294 | 5.2 | 5.2 | 0.00 | 0.00 | 0.00 | ||
| 20260504195357 | 71 | 300 | 7.0 | 7.0 | 0.00 | 0.00 | 0.00 | ||
| 20260504193858 | 72 | 328 | 5.2 | 6.1 | 0.00 | 0.00 | 0.00 | ||
| 20260504192358 | 70 | 302 | 7.0 | 5.2 | 0.00 | 0.00 | 0.00 | ||
| 20260504190859 | 70 | 283 | 6.1 | 2.6 | 0.00 | 0.00 | 0.00 | ||
| 20260504185401 | 70 | 262 | 4.3 | 5.2 | 0.00 | 0.00 | 0.00 | ||
| 20260504183901 | 68 | 297 | 3.5 | 2.6 | 0.00 | 0.00 | 0.00 | ||
| 20260504182404 | 69 | 290 | 5.2 | 1.7 | 0.00 | 0.00 | 0.00 | ||
| 20260504180903 | 70 | 347 | 4.3 | 5.2 | 0.00 | 0.00 | 0.00 | ||
| 20260504175403 | 69 | 281 | 6.1 | 8.7 | 0.00 | 0.00 | 0.00 | ||
| 20260504173904 | 69 | 305 | 3.5 | 3.5 | 0.00 | 0.00 | 0.00 | ||
| 20260504170905 | 69 | 283 | 6.1 | 7.8 | 0.00 | 0.00 | 0.00 | ||
| 20260504150913 | 60 | 333 | 0.9 | 2.6 | 0.00 | 0.00 | 0.00 | ||
| 20260504140917 | 59 | 236 | 0.0 | 0.0 | 0.00 | 0.00 | 0.00 | ||
| 20260504080949 | 49 | 179 | 0.0 | 0.0 | 0.00 | 0.00 | 0.00 |